Location: Observatory
(52.1446°N, 0.4624°W)
Time: 02:09:57
(UTC+01:00)

ISS - Visible Passes

Search period start: 25 September 2022 00:00
Search period end: 05 October 2022 00:00
Orbit: 414 x 417 km, 51.6° (Epoch: 24 September)

Date Brightness Start Highest point End Pass type
(mag) Time Alt. Az. Time Alt. Az. Time Alt. Az.
25 Sep -3.7 19:31:38 10° W 19:35:00 83° S 19:38:20 10° E visible
25 Sep -3.3 21:08:20 10° W 21:11:13 54° WSW 21:11:13 54° WSW visible
26 Sep -3.8 20:19:42 10° W 20:23:04 74° S 20:24:23 34° ESE visible
26 Sep -0.9 21:56:34 10° W 21:57:15 14° W 21:57:15 14° W visible
27 Sep -3.7 19:31:02 10° W 19:34:24 82° S 19:37:32 12° E visible
27 Sep -2.6 21:07:48 10° W 21:10:25 35° SW 21:10:25 35° SW visible
28 Sep -3.3 20:19:05 10° W 20:22:22 51° SSW 20:23:36 32° SE visible
29 Sep -3.5 19:30:23 10° W 19:33:43 64° SSW 19:36:47 12° ESE visible
29 Sep -1.7 21:07:23 10° W 21:09:40 21° SW 21:09:40 21° SW visible
30 Sep -2.3 20:18:30 10° W 20:21:30 30° SSW 20:22:54 21° SSE visible
01 Oct -2.7 19:29:41 10° W 19:32:53 41° SSW 19:36:04 10° SE visible
01 Oct -0.9 21:07:54 10° WSW 21:08:56 11° SW 21:09:05 11° SW visible
02 Oct -1.3 20:18:13 10° WSW 20:20:26 16° SW 20:22:26 11° S visible
03 Oct -1.7 19:29:07 10° W 19:31:51 23° SSW 19:34:34 10° SSE visible
